Погода Большерецкий

Погода Большерецкий : погода сейчас, прогноз погоды и архив. Всё, что Вы хотите узнать о погоде Большерецкий!

Поиск расширенной информации на нашем сайте:

Другие новости

Новости СМИ2

Главная страница сайта

Новости сайта

02.10.2013

Напоминаем, что на нашем новом сайте вы можете получить высокодетализированные прогнозы погоды по пунктам России, СНГ и мира (включающие важные для авиации метеовеличины, такие как направление и скорость ветра, видимость, явления погоды, количество и форма облачности, нижняя и верхняя граница облачности), а также ознакомиться с разнообразными материалами по авиационной метеорологии и подборкой полезных ссылок на эту тему.

Сайт Метеоцентр.Азия посвящён разработке технологий оптимизации авиаметеорологического обслуживания, включая проектирование и перспективное создание нескольких автоматизированных авиаметеорологических систем:
- система выпуска высокодетальных прогностических карт явлений погоды для нижнего воздушного пространства по России и ближнему зарубежью;
- система верификации прогнозов TAF (выпускаемых синоптиками официальных АМСГ РФ и ближнего зарубежья) и AUTOTAF (выпускаемых сайтом Метеоцентр.Азия) - выявление ошибок, онлайн-сопоставление с фактической погодой METAR, автоматическое внесение коррективов в прогнозы при резком отклонении фактической погоды от прогноза, подсчёт оправдываемости прогнозов по элементам и в целом;
- система обработки, анализа и отображения авиаметеорологической информации для применения провайдерами метеорологической информации.

Рекомендуем: Описание курсы английского языка по skype у нас на сайте.

Погода Большерецкий - сегодня

Время (UTC), дата Ветер
(°,м/с) 
Видим.   Явления Облачность Т
(°С)
Тd
(°С)
f(%) Тe
(°С)
Pmin
(гПа)
dP
(гПа)
Po
(мм)
O2
(г/м3)
Тmin Tmax R s Состояние
почвы
18 22.04.17 160 (Ю) 20000 м    10/0 средняя 
[Ac und]
-0.1 -0.9 94 -1  1015  0.1  758  306           
21 22.04.17 160 (Ю) 20000 м    9/0 средняя 
[Ac trans]
+1.5 -1.1 83 1014.7  -0.3  758  304  -0.1      мокрый или
старый снег
50-90% 
00 23.04.17 190 (Ю) 20000 м    9/6 600 м средняя 
[Sc|Ac trans]
+2.4 -0.2 83 1014.2  -0.5  758  303           
03 23.04.17 180 (Ю) 20000 м    10/8 600 м средняя 
[Sc|Ac und]
+1.7 +0.2 90 1013.2  -1  757  303           
06 23.04.17 170 (Ю) 20000 м    10/10 600 м 
[Sc]
+1.4 -0.3 88 +1  1012.3  -0.9  756  303           
09 23.04.17 тихо ()   20000 м    10/10 600 м 
[Sc]
+0.6 -0.8 90 +1    0.1  756  304    +2.7       
12 23.04.17 080 (В) 20000 м    10/10 600 м 
[Sc]
+0.4 -0.6 93 1013.5  1.1  757  305           
15 23.04.17 тихо ()   20000 м    10/10 600 м 
[Sc]
-1.4 -2.1 95 -1  1014.6  1.1  758  307           
18 23.04.17 040 (СВ) 20000 м    9/4 600 м средняя 
[Sc|Ac trans]
-2.7 -5 84 -5  1015.3  0.7  759  309           
21 23.04.17 360 (С) 20000 м    8/0 средняя 
[Ac trans]
+0 -4.4 72 -1  1016.5  1.2  760  307  -3.1      мокрый или
старый снег
50-90% 
00 24.04.17 330 (СЗ) 20000 м    8/0 верхняя 
[Ci fib]
+1.9 -1.3 79 1016.6  0.1  760  304           
03 24.04.17 330 (СЗ) 20000 м    8/0 верхняя 
[Ci fib]
+1.2 -0.7 87 -2  1016.3  -0.3  759  305           
06 24.04.17 330 (СЗ) 20000 м    6/0 верхняя 
[Ci fib]
+1.1 -0.6 88 -2  1016.2  0.1  759  305           
09 24.04.17 330 (СЗ) 7-10{11}  20000 м    9/9 600 м 
[Sc]
-0.8 -2.1 91 -5  1016.5  0.3  760  307    +2.4       
12 24.04.17 330 (СЗ) 4{10}  20000 м    10/10 600 м 
[Sc]
-0.9 -2.1 92 -3  1016.7  0.2  760  307           
15 24.04.17 310 (СЗ) 20000 м    10/10 600 м 
[Sc]
-1.3 -2.5 92 -3  1016.4  -0.3  759  308           
18 24.04.17 300 (СЗ) 20000 м    10/10 600 м 
[Sc]
-1.6 -2.9 91 -4  1016.7  0.3  760  308           
21 24.04.17 310 (СЗ) 20000 м    10/10 600 м 
[Sc]
-1.1 -2.9 88 -2  1016.1  -0.6  759  308  -1.6      мокрый или
старый снег
50-90% 
00 25.04.17 320 (СЗ) 20000 м    10/10 600 м 
[Sc]
+0.4 -3.2 77 1015.7  -0.4  759  306           
03 25.04.17 300 (СЗ) 20000 м    9/9 600 м 
[Sc]
+1.6 -1.8 78 -1  1014.9  -0.8  758  304           
06 25.04.17 310 (СЗ) 20000 м    10/10 600 м 
[Sc]
+0.5 -1.8 85 -2  1014.5  -0.4  758  305           
09 25.04.17 330 (СЗ) 20000 м    10/10 600 м 
[Sc]
-0.3 -2.2 87 -3  1014.8  0.3  758  306    +1.9       
12 25.04.17 330 (СЗ) 20000 м    10/10 600 м 
[Sc]
+0.2 -1.2 90 +1  1014.6  -0.2  758  305           
15 25.04.17 250 (З) 20000 м    10/10 600 м 
[Sc]
-0.1 -1.5 90 +1  1014.4  -0.2  758  306           
18 25.04.17 310 (СЗ) 20000 м    10/10 300 м 
[St]
+0.1 -0.8 94 -1  1013.9  -0.4  758  305           
Время (UTC), дата Ветер
(°,м/с) 
Видим.   Явления Облачность Т
(°С)
Тd
(°С)
f(%) Тe
(°С)
Pmin
(гПа)
dP
(гПа)
Po
(мм)
O2
(г/м3)
Тmin Tmax R s Состояние
почвы

Для получения пояснительной информации подведите курсор к названию столбца.

ПОГОДА Большерецкий - архив

Всё, что Вы хотите узнать о погоде Большерецкий - удобно и подробно!

Выберите нужную дату (начиная с 1 января 2015* года) и нажмите кнопку "Найти".
Будут отображены архивные сводки погоды по пункту Большерецкий, начиная с указанной даты.


Отображать данные в формате CSV (для использования в таблицах Excel)


Внимание! Наш архив погоды предназначен исключительно для личного некоммерческого использования в познавательных целях. Если Вам необходимы официальные справки о состоянии погоды (для производственных, юридических, коммерческих и т.п. целей), обращайтесь в органы Росгидромета.

*Примечание: данная дата относится к архиву по метеостанциям СССР (Россия, СНГ, Балтия).
Архив по метеостанциям Зарубежной Европы и Азии (кроме Китая) хранится 10 дней, по другим регионам земного шара (Китай, Африка, Америка, Австралия, Океания) - 1 день.

Большерецкий - район местоположения метеостанции


Название, широта, долгота, высота метеостанции:
Большерецкий 52.9°ш. 156.6°д. 27 м над ур. моря [Российская Федерация]

Дополнительная информация

В oтличие oт бoльшинства пoгoдных сайтoв мы публикуем пoдрoбную метеoинфoрмацию в детальнoм прoфессиoнальнoм фoрмате.

Характеристики температуры и влажнoсти вoздуха измеряются на высoте 2 м в тени вдали oт зданий и деревьев.
Скoрoсть ветра измеряется на высoте 10 м (на урoвне рoста челoвека скoрoсть ветра ниже в 1.5-2 раза). Если метеoстанция нахoдится в гoрoде или в лесу, тo скoрoсть ветра занижена на 2-4 м/с пo сравнению с oткрытым местoм. Скoрoсть ветра над акватoриями крупных рек и oзёр, а также на вершинах хoлмoв на 2-5 м/с выше, чем в oбычных услoвиях.
Атмoсфернoе давление в разных тoчках местнoсти мoжет значительнo oтличаться oт давления на метеoстанции, в зависимoсти oт услoвий рельефа (при пoдъёме на 10 м давление пoнижается примернo на 1 мм рт.ст.).